User: anonymous   Login
Location: Unspecified
(0.0000°N, 0.0000°E)
Time: 07:03:34
(UTC+00:00)
Language:

CP4 - Orbit

View from above orbital plane
View from above orbital plane
View from above satellite
View from above satellite

Ground track
Ground track

The orbit data is extracted from the following two-line orbital elements,

1 31132U 07012Q   18048.36083384 +.00000142 +00000-0 +38721-4 0  9998
2 31132 098.0646 001.5624 0082086 092.7292 268.3307 14.58932304576206
Epoch (UTC): 17 February 2018 08:39:36
Eccentricity: 0.0082086
inclination: 98.0646°
perigee height: 638 km
apogee height: 755 km
right ascension of ascending node: 1.5624°
argument of perigee: 92.7292°
revolutions per day: 14.58932304
mean anomaly at epoch: 268.3307°
orbit number at epoch: 57620

The dashed part of the orbit path shows where the satellite is in the earth's shadow,  

DLR